When you browse on this site, cookies collect data to enhance your experience and personalize the content and advertising you see.
Visit our Privacy Policy to learn more. By continuing to use the site, you agree to this use of cookies and data.
  • In Österreich
  • Länderverzeichnis
  • Für 7 Tage
  • Wassertemperatur
  • Wetterkarte
  • News
  • Widgets
  • user-avatar
    Anmelden

    Stündliche Wetter Milevichi

    Heute, 31 Mai, Sonntag

    Zeit Temperatur Niederschläge Wind Luftdruck Luftfeuchtigkeit
    00:00 +13°C° 0 mm 9 m/S 741 mmHg 87%
    01:00 +13°C° 0 mm 9 m/S 741 mmHg 86%
    02:00 +13°C° 0 mm 9 m/S 742 mmHg 84%
    03:00 +13°C° 0 mm 9 m/S 742 mmHg 83%
    04:00 +13°C° 0 mm 8 m/S 742 mmHg 82%
    05:00 +13°C° 0 mm 8 m/S 742 mmHg 81%
    06:00 +12°C° 0.1 mm 8 m/S 743 mmHg 81%
    07:00 +12°C° 0.1 mm 9 m/S 743 mmHg 80%
    08:00 +11°C° 0.1 mm 9 m/S 744 mmHg 80%
    09:00 +11°C° 0.1 mm 9 m/S 744 mmHg 80%
    10:00 +12°C° 0.1 mm 9 m/S 745 mmHg 80%
    11:00 +12°C° 0.1 mm 9 m/S 745 mmHg 80%
    12:00 +12°C° 0 mm 9 m/S 745 mmHg 78%
    13:00 +13°C° 0 mm 9 m/S 746 mmHg 76%
    14:00 +15°C° 0 mm 9 m/S 746 mmHg 74%
    15:00 +13°C° 0 mm 8 m/S 746 mmHg 74%
    16:00 +14°C° 0 mm 7 m/S 747 mmHg 75%
    17:00 +14°C° 0 mm 6 m/S 747 mmHg 75%
    18:00 +14°C° 0 mm 5 m/S 747 mmHg 76%
    19:00 +13°C° 0 mm 5 m/S 748 mmHg 78%
    20:00 +13°C° 0 mm 4 m/S 748 mmHg 80%
    21:00 +12°C° 0 mm 5 m/S 748 mmHg 76%
    22:00 +12°C° 0 mm 5 m/S 749 mmHg 72%
    23:00 +10°C° 0 mm 6 m/S 749 mmHg 69%

    Morgen, 1 Juni, Montag

    Zeit Temperatur Niederschläge Wind Luftdruck Luftfeuchtigkeit
    00:00 +9°C° 0 mm 5 m/S 750 mmHg 68%
    01:00 +8°C° 0 mm 5 m/S 750 mmHg 67%
    02:00 +7°C° 0 mm 5 m/S 750 mmHg 66%
    03:00 +7°C° 0 mm 5 m/S 750 mmHg 69%
    04:00 +6°C° 0 mm 5 m/S 750 mmHg 71%
    05:00 +5°C° 0 mm 5 m/S 750 mmHg 74%
    06:00 +7°C° 0 mm 5 m/S 751 mmHg 73%
    07:00 +8°C° 0 mm 6 m/S 751 mmHg 72%
    08:00 +9°C° 0 mm 6 m/S 751 mmHg 71%
    09:00 +10°C° 0 mm 6 m/S 751 mmHg 66%
    10:00 +11°C° 0 mm 7 m/S 751 mmHg 62%
    11:00 +12°C° 0 mm 7 m/S 751 mmHg 58%
    12:00 +12°C° 0 mm 7 m/S 751 mmHg 57%
    13:00 +12°C° 0 mm 7 m/S 751 mmHg 56%
    14:00 +14°C° 0 mm 7 m/S 751 mmHg 56%
    15:00 +14°C° 0 mm 6 m/S 751 mmHg 56%
    16:00 +14°C° 0 mm 6 m/S 750 mmHg 57%
    17:00 +14°C° 0 mm 5 m/S 750 mmHg 58%
    18:00 +13°C° 0 mm 5 m/S 750 mmHg 63%
    19:00 +12°C° 0 mm 4 m/S 750 mmHg 69%
    20:00 +10°C° 0 mm 3 m/S 750 mmHg 74%
    21:00 +9°C° 0 mm 3 m/S 750 mmHg 76%
    22:00 +8°C° 0 mm 2 m/S 750 mmHg 78%
    23:00 +7°C° 0 mm 2 m/S 750 mmHg 79%

    übermorgen, 2 Juni, Dienstag

    Zeit Temperatur Niederschläge Wind Luftdruck Luftfeuchtigkeit
    00:00 +7°C° 0 mm 2 m/S 749 mmHg 80%
    01:00 +7°C° 0 mm 2 m/S 749 mmHg 80%
    02:00 +7°C° 0 mm 2 m/S 749 mmHg 80%
    03:00 +5°C° 0 mm 3 m/S 749 mmHg 82%
    04:00 +5°C° 0 mm 3 m/S 748 mmHg 83%
    05:00 +4°C° 0 mm 3 m/S 748 mmHg 85%
    06:00 +6°C° 0 mm 4 m/S 748 mmHg 79%
    07:00 +8°C° 0 mm 5 m/S 748 mmHg 73%
    08:00 +10°C° 0 mm 6 m/S 748 mmHg 67%
    09:00 +11°C° 0 mm 6 m/S 747 mmHg 66%
    10:00 +12°C° 0 mm 7 m/S 747 mmHg 65%
    11:00 +14°C° 0 mm 7 m/S 746 mmHg 64%
    12:00 +14°C° 0.2 mm 7 m/S 746 mmHg 63%
    13:00 +15°C° 0.2 mm 7 m/S 745 mmHg 62%
    14:00 +15°C° 0.2 mm 7 m/S 745 mmHg 61%
    15:00 +15°C° 0.3 mm 7 m/S 745 mmHg 63%
    16:00 +15°C° 0.3 mm 6 m/S 744 mmHg 66%
    17:00 +15°C° 0.3 mm 6 m/S 744 mmHg 68%
    18:00 +13°C° 0.1 mm 6 m/S 743 mmHg 73%
    19:00 +12°C° 0.1 mm 5 m/S 743 mmHg 77%
    20:00 +9°C° 0.1 mm 5 m/S 743 mmHg 81%
    21:00 +9°C° 0.2 mm 5 m/S 743 mmHg 83%
    22:00 +9°C° 0.2 mm 6 m/S 742 mmHg 86%
    23:00 +8°C° 0.2 mm 6 m/S 742 mmHg 88%

    3 Juni, Mittwoch

    Zeit Temperatur Niederschläge Wind Luftdruck Luftfeuchtigkeit
    00:00 +8°C° 0.1 mm 6 m/S 742 mmHg 90%
    01:00 +8°C° 0.1 mm 5 m/S 741 mmHg 91%
    02:00 +8°C° 0.1 mm 5 m/S 741 mmHg 93%
    03:00 +8°C° 0.5 mm 5 m/S 741 mmHg 93%
    04:00 +8°C° 0.5 mm 5 m/S 740 mmHg 94%
    05:00 +8°C° 0.5 mm 5 m/S 740 mmHg 94%
    06:00 +8°C° 0.6 mm 5 m/S 740 mmHg 94%
    07:00 +8°C° 0.6 mm 5 m/S 740 mmHg 94%
    08:00 +8°C° 0.6 mm 5 m/S 740 mmHg 95%
    09:00 +9°C° 0.2 mm 5 m/S 740 mmHg 93%
    10:00 +9°C° 0.2 mm 5 m/S 740 mmHg 91%
    11:00 +10°C° 0.2 mm 5 m/S 740 mmHg 90%
    12:00 +12°C° 0.5 mm 5 m/S 740 mmHg 87%
    13:00 +13°C° 0.5 mm 5 m/S 740 mmHg 85%
    14:00 +14°C° 0.5 mm 5 m/S 740 mmHg 83%
    15:00 +14°C° 0.7 mm 5 m/S 740 mmHg 81%
    16:00 +14°C° 0.7 mm 4 m/S 740 mmHg 79%
    17:00 +14°C° 0.7 mm 4 m/S 740 mmHg 77%
    18:00 +13°C° 0.4 mm 4 m/S 740 mmHg 81%
    19:00 +12°C° 0.4 mm 4 m/S 740 mmHg 85%
    20:00 +11°C° 0.4 mm 3 m/S 740 mmHg 89%
    21:00 +10°C° 0.1 mm 3 m/S 740 mmHg 91%
    22:00 +9°C° 0.1 mm 3 m/S 740 mmHg 93%
    23:00 +8°C° 0.1 mm 2 m/S 740 mmHg 94%

    4 Juni, Donnerstag

    Zeit Temperatur Niederschläge Wind Luftdruck Luftfeuchtigkeit
    00:00 +8°C° 0 mm 2 m/S 740 mmHg 95%
    01:00 +8°C° 0 mm 2 m/S 740 mmHg 96%
    02:00 +7°C° 0 mm 2 m/S 740 mmHg 97%
    03:00 +7°C° 0 mm 2 m/S 740 mmHg 97%
    04:00 +7°C° 0 mm 2 m/S 740 mmHg 97%
    05:00 +7°C° 0 mm 2 m/S 740 mmHg 97%
    06:00 +9°C° 0 mm 3 m/S 741 mmHg 95%
    07:00 +10°C° 0 mm 3 m/S 741 mmHg 92%
    08:00 +12°C° 0 mm 3 m/S 741 mmHg 89%
    09:00 +12°C° 0.6 mm 3 m/S 741 mmHg 87%
    10:00 +13°C° 0.6 mm 3 m/S 741 mmHg 85%
    11:00 +14°C° 0.6 mm 3 m/S 742 mmHg 83%
    12:00 +14°C° 1.1 mm 3 m/S 741 mmHg 81%
    13:00 +16°C° 1.1 mm 3 m/S 741 mmHg 78%
    14:00 +17°C° 1.1 mm 2 m/S 741 mmHg 76%
    15:00 +17°C° 0.6 mm 2 m/S 741 mmHg 76%
    16:00 +17°C° 0.6 mm 2 m/S 741 mmHg 75%
    17:00 +17°C° 0.6 mm 2 m/S 741 mmHg 75%
    18:00 +16°C° 0.4 mm 1 m/S 741 mmHg 79%
    19:00 +15°C° 0.4 mm 1 m/S 741 mmHg 83%
    20:00 +14°C° 0.4 mm 1 m/S 741 mmHg 87%
    21:00 +13°C° 0 mm 2 m/S 741 mmHg 89%
    22:00 +12°C° 0 mm 2 m/S 741 mmHg 91%
    23:00 +10°C° 0 mm 2 m/S 741 mmHg 93%

    5 Juni, Freitag

    Zeit Temperatur Niederschläge Wind Luftdruck Luftfeuchtigkeit
    00:00 +10°C° 0 mm 2 m/S 741 mmHg 94%
    01:00 +9°C° 0 mm 2 m/S 741 mmHg 95%
    02:00 +9°C° 0 mm 2 m/S 741 mmHg 96%
    03:00 +9°C° 0 mm 2 m/S 741 mmHg 96%
    04:00 +9°C° 0 mm 2 m/S 741 mmHg 97%
    05:00 +9°C° 0 mm 2 m/S 741 mmHg 97%
    06:00 +12°C° 0 mm 2 m/S 741 mmHg 94%
    07:00 +13°C° 0 mm 2 m/S 741 mmHg 90%
    08:00 +15°C° 0 mm 2 m/S 741 mmHg 86%
    09:00 +16°C° 0.1 mm 2 m/S 741 mmHg 80%
    10:00 +17°C° 0.1 mm 2 m/S 741 mmHg 74%
    11:00 +19°C° 0.1 mm 2 m/S 741 mmHg 68%
    12:00 +19°C° 0.2 mm 2 m/S 741 mmHg 66%
    13:00 +20°C° 0.2 mm 3 m/S 740 mmHg 64%
    14:00 +20°C° 0.2 mm 3 m/S 740 mmHg 62%
    15:00 +20°C° 0.1 mm 3 m/S 740 mmHg 62%
    16:00 +20°C° 0.1 mm 3 m/S 740 mmHg 63%
    17:00 +20°C° 0.1 mm 3 m/S 740 mmHg 63%
    18:00 +19°C° 0 mm 2 m/S 740 mmHg 67%
    19:00 +17°C° 0 mm 2 m/S 740 mmHg 71%
    20:00 +16°C° 0 mm 1 m/S 740 mmHg 76%
    21:00 +15°C° 0 mm 1 m/S 741 mmHg 77%
    22:00 +14°C° 0 mm 1 m/S 741 mmHg 78%
    23:00 +13°C° 0 mm 1 m/S 741 mmHg 79%
    Mehr zeigen